Location: Melbourne
(37.8666°S, 145.1333°E)
Time: 05:57:32
(UTC+11:00)

Amateur Radio Satellites - All Passes

Search period start: 15 February 2016 05:27
Search period end: 16 February 2016 05:27
Location: Melbourne, 37.8666°S, 145.1333°E

Satellite Date Start Highest point End Downlink Frequencies (MHz)
Time Altitude Azimuth
STARS 15 Feb 05:31:44 05:36:13 65° 254° (WSW) 05:40:39 437.465
BEESAT 2 15 Feb 05:42:35 05:46:26 51° 236° (WSW) 05:50:21 435.950
CUBESAT XI-V 15 Feb 05:52:29 05:54:56 14° 89° (E) 05:57:22 437.345
CUTE-I 15 Feb 05:56:15 06:00:42 27° 113° (ESE) 06:05:11 437.470
AO-7 15 Feb 06:00:59 06:06:43 20° 273° (W) 06:12:29 29.400- 29.500
KKS-1 15 Feb 06:03:41 06:06:40 17° 246° (WSW) 06:09:38 437.445
Cubesat XI-IV 15 Feb 06:11:05 06:15:59 37° 111° (ESE) 06:20:55 437.490
O/OREOS (USA 219) 15 Feb 06:19:05 06:23:39 83° 290° (WNW) 06:28:08 437.305
HORYU 2 15 Feb 06:29:53 06:30:47 11° 270° (W) 06:31:43 437.375
BRITE-PL 15 Feb 06:30:52 06:34:13 23° 112° (ESE) 06:37:42 437.365/2234.400
Cosmos 2491 15 Feb 06:31:49 06:34:53 12° 239° (WSW) 06:37:57 435.465 / 435.565
MOZHAYETS 4 15 Feb 06:34:11 06:37:35 20° 247° (WSW) 06:40:57
Cosmos 2504 15 Feb 06:35:22 06:41:09 24° 264° (W) 06:47:12 435.465 / 435.565
AIST 2 15 Feb 06:40:02 06:44:04 59° 63° (ENE) 06:48:11 435.215
RS-15 15 Feb 06:43:03 06:51:34 24° 151° (SSE) 06:59:51 29.354- 29.394
HO-68 15 Feb 06:47:10 06:49:25 12° 128° (SE) 06:51:39 435.675
LilacSat-2 15 Feb 06:51:49 06:55:42 76° 103° (ESE) 06:59:40 437.200
GOMX 1 15 Feb 07:09:32 07:13:21 31° 110° (ESE) 07:17:26 467.674
AO-85 15 Feb 07:12:38 07:16:49 57° 122° (ESE) 07:21:21 145.980
PCSat 15 Feb 07:15:15 07:19:43 25° 129° (SE) 07:24:09 145.827
CUBESAT XI-V 15 Feb 07:28:02 07:32:36 52° 254° (WSW) 07:37:09 437.345
CUTE-I 15 Feb 07:35:37 07:40:33 36° 278° (W) 07:45:32 437.470
Cubesat XI-IV 15 Feb 07:51:36 07:56:05 26° 275° (W) 08:00:37 437.490
CANX-2 15 Feb 07:52:27 07:55:36 20° 112° (ESE) 07:58:47 2200.000
GONETS M04 15 Feb 07:53:13 08:01:03 34° 108° (ESE) 08:08:45
DOVE 4 15 Feb 08:01:47 08:06:10 59° 106° (ESE) 08:10:53 437.250
ISS 15 Feb 08:07:33 08:09:17 13° 160° (SSE) 08:11:02 145.825
BRITE-PL 15 Feb 08:09:03 08:12:36 26° 275° (W) 08:16:19 437.365/2234.400
COMPASS 1 15 Feb 08:15:51 08:18:40 17° 113° (ESE) 08:21:30 437.405
CINEMA 3 15 Feb 08:18:24 08:22:31 32° 111° (ESE) 08:26:50 145.822/145.860
AIST 2 15 Feb 08:20:38 08:22:57 14° 225° (SW) 08:25:17 435.215
PRISM 15 Feb 08:21:57 08:24:31 16° 86° (E) 08:27:05 437.425
HO-68 15 Feb 08:28:39 08:35:45 66° 109° (ESE) 08:42:54 435.675
STRAND 1 15 Feb 08:36:33 08:41:45 86° 75° (ENE) 08:46:53 437.568
SEEDS 15 Feb 08:38:06 08:42:09 42° 107° (ESE) 08:46:13 437.485
AAUSAT CUBESAT 2 15 Feb 08:38:40 08:42:08 25° 110° (ESE) 08:45:37 437.432
CUTE 1.7 + AOD 2 15 Feb 08:40:49 08:45:05 62° 105° (ESE) 08:49:23 437.475
GOMX 1 15 Feb 08:48:12 08:51:31 21° 273° (W) 08:55:01 467.674
AO-85 15 Feb 08:54:48 08:56:54 13° 290° (WNW) 08:59:04 145.980
Oscar 11 15 Feb 08:55:02 08:57:52 17° 113° (ESE) 09:00:44 145.826/435.025
RS-15 15 Feb 08:55:15 09:06:21 72° 123° (ESE) 09:17:12 29.354- 29.394
PCSat 15 Feb 08:58:08 09:03:18 45° 291° (WNW) 09:08:26 145.827
DELFI C3 15 Feb 09:12:48 09:14:37 13° 115° (ESE) 09:16:25 145.870
UWE-3 15 Feb 09:16:16 09:20:27 34° 110° (ESE) 09:24:43 435.000/436.395/437.385
AIST 1 15 Feb 09:23:02 09:25:45 16° 108° (ESE) 09:28:28
Cosmos 2499 15 Feb 09:25:59 09:33:39 57° 100° (E) 09:41:50 435.465 / 435.565
CUBEBUG 2 15 Feb 09:26:12 09:30:47 61° 105° (ESE) 09:35:32 437.445
CANX-2 15 Feb 09:27:20 09:31:14 33° 277° (W) 09:35:10 2200.000
HUMSAT D 15 Feb 09:35:17 09:36:02 10° 117° (ESE) 09:36:46 437.325/437.525
DOVE 4 15 Feb 09:42:45 09:44:22 12° 268° (W) 09:46:02 437.250
ISS 15 Feb 09:42:57 09:46:18 63° 142° (SE) 09:49:36 145.825
GONETS M04 15 Feb 09:49:43 09:58:03 49° 269° (W) 10:06:16
COMPASS 1 15 Feb 09:50:02 09:53:56 36° 278° (W) 09:57:54 437.405
CINEMA 3 15 Feb 09:55:52 09:59:39 24° 274° (W) 10:03:36 145.822/145.860
PRISM 15 Feb 09:56:08 09:59:58 37° 251° (WSW) 10:03:48 437.425
ZACube-1 15 Feb 09:57:51 10:02:23 68° 105° (ESE) 10:07:02 437.345
FUNcube-1 15 Feb 10:04:04 10:08:37 76° 103° (ESE) 10:13:17 145.935
AAUSAT CUBESAT 2 15 Feb 10:14:07 10:17:32 24° 275° (W) 10:21:00 437.432
SEEDS 15 Feb 10:15:36 10:18:02 15° 272° (W) 10:20:28 437.485
STRAND 1 15 Feb 10:18:38 10:20:08 11° 240° (WSW) 10:21:39 437.568
HO-68 15 Feb 10:18:42 10:23:55 21° 273° (W) 10:29:12 435.675
CUTE 1.7 + AOD 2 15 Feb 10:21:00 10:21:18 10° 270° (W) 10:21:36 437.475
PHONESAT 2.4 15 Feb 10:26:01 10:27:20 12° 36° (NE) 10:28:40 2401.200-2431.200
Oscar 11 15 Feb 10:29:31 10:33:40 40° 278° (W) 10:37:51 145.826/435.025
DELFI C3 15 Feb 10:45:09 10:49:04 47° 279° (W) 10:53:02 145.870
AISAT 15 Feb 10:47:03 10:49:15 14° 116° (ESE) 10:51:28 437.250
UNISAT 6 15 Feb 10:48:14 10:51:23 18° 88° (E) 10:54:27 437.425
DX 1 15 Feb 10:51:25 10:54:00 16° 115° (ESE) 10:56:36 434.975-435.025
CUBEBUG 1 15 Feb 10:51:52 10:53:22 12° 117° (ESE) 10:54:53 437.445
UWE-3 15 Feb 10:53:22 10:56:56 22° 273° (W) 11:00:36 435.000/436.395/437.385
AIST 1 15 Feb 10:59:24 11:03:31 39° 272° (W) 11:07:37
CUBEBUG 2 15 Feb 11:05:51 11:07:49 12° 270° (W) 11:09:48 437.445
HUMSAT D 15 Feb 11:06:42 11:11:02 70° 280° (W) 11:15:25 437.325/437.525
RS-15 15 Feb 11:08:56 11:17:35 28° 283° (WNW) 11:26:12 29.354- 29.394
Cosmos 2499 15 Feb 11:20:04 11:26:17 27° 265° (W) 11:32:49 435.465 / 435.565
ISS 15 Feb 11:21:01 11:22:20 12° 307° (NW) 11:23:39 145.825
50 SAT 15 Feb 11:28:03 11:31:40 40° 107° (ESE) 11:35:18 437.505
ESTCUBE 1 15 Feb 11:28:07 11:32:21 41° 108° (ESE) 11:36:37 437.505/2401.250
ANTELSAT 15 Feb 11:32:03 11:36:38 55° 80° (E) 11:41:01 437.575/2403.000
POLYITAN 1 15 Feb 11:34:18 11:36:06 12° 89° (E) 11:37:55 437.675
QB50P2 15 Feb 11:34:30 11:36:29 13° 89° (E) 11:38:28 145.880/145.840
TIGRISAT 15 Feb 11:37:00 11:41:38 59° 80° (E) 11:46:03 435.000
ZACube-1 15 Feb 11:38:11 11:39:07 11° 269° (W) 11:40:04 437.345
PHONESAT 2.4 15 Feb 12:00:53 12:04:07 59° 22° (NNE) 12:07:23 2401.200-2431.200
POPSAT HIP 1 15 Feb 12:01:27 12:05:04 25° 85° (E) 12:08:38 437.405
DUCHIFAT 1 15 Feb 12:01:44 12:05:14 23° 85° (E) 12:08:41 145.980
NANOSAT C BR1 15 Feb 12:02:41 12:06:18 25° 84° (E) 12:09:52 145.865
VELOX 1 15 Feb 12:03:07 12:07:32 89° 124° (SE) 12:12:02 145.980
UKube-1 15 Feb 12:03:37 12:07:58 84° 104° (ESE) 12:12:22 .
SPROUT 15 Feb 12:04:23 12:07:57 26° 111° (ESE) 12:11:34 437.525
QB50P1 15 Feb 12:13:16 12:17:16 35° 82° (E) 12:21:12 145.935-145.965
AISAT 15 Feb 12:20:55 12:25:14 54° 280° (W) 12:29:39 437.250
UNISAT 6 15 Feb 12:23:55 12:28:16 39° 252° (WSW) 12:32:28 437.425
CUBEBUG 1 15 Feb 12:24:47 12:29:05 62° 281° (W) 12:33:28 437.445
DX 1 15 Feb 12:25:37 12:29:47 45° 280° (W) 12:34:02 434.975-435.025
BUGSAT 1 15 Feb 12:39:42 12:43:38 33° 83° (E) 12:47:31 437.445
50 SAT 15 Feb 13:04:15 13:05:51 12° 272° (W) 13:07:28 437.505
ESTCUBE 1 15 Feb 13:06:22 13:09:18 17° 273° (W) 13:12:17 437.505/2401.250
POLYITAN 1 15 Feb 13:07:58 13:12:13 52° 253° (WSW) 13:16:24 437.675
QB50P2 15 Feb 13:08:21 13:12:35 49° 254° (WSW) 13:16:44 145.880/145.840
ANTELSAT 15 Feb 13:10:22 13:12:48 14° 244° (WSW) 13:15:11 437.575/2403.000
TIGRISAT 15 Feb 13:15:33 13:17:44 13° 243° (WSW) 13:19:52 435.000
TISAT 1 15 Feb 13:27:20 13:31:34 83° 105° (ESE) 13:35:53 437.305
BEESAT 3 15 Feb 13:28:21 13:32:00 33° 126° (SE) 13:35:37 437.485
ITUPSAT 1 15 Feb 13:31:49 13:34:55 17° 116° (ESE) 13:38:02 437.325
BEESAT 15 Feb 13:36:15 13:39:39 19° 115° (ESE) 13:43:04 436.000
POPSAT HIP 1 15 Feb 13:37:09 13:40:45 26° 249° (WSW) 13:44:20 437.405
DUCHIFAT 1 15 Feb 13:37:12 13:40:53 27° 250° (WSW) 13:44:30 145.980
PHONESAT 2.4 15 Feb 13:38:11 13:41:25 54° 186° (S) 13:44:41 2401.200-2431.200
NANOSAT C BR1 15 Feb 13:38:22 13:41:57 25° 249° (WSW) 13:45:29 145.865
SPROUT 15 Feb 13:40:16 13:43:50 25° 275° (W) 13:47:27 437.525
JAS-2 15 Feb 13:43:52 13:49:42 23° 88° (E) 13:55:36 435.910
QB50P1 15 Feb 13:49:42 13:52:46 19° 247° (WSW) 13:55:50 145.935-145.965
BEESAT 2 15 Feb 14:02:23 14:06:18 49° 124° (SE) 14:10:12 435.950
Gurwin Techsat 1B 15 Feb 14:12:31 14:14:39 12° 90° (E) 14:16:46 435.225
BUGSAT 1 15 Feb 14:15:37 14:18:46 20° 247° (WSW) 14:21:53 437.445
SWISSCUBE 15 Feb 14:27:40 14:32:27 72° 105° (ESE) 14:37:17 437.505
Oscar 19 15 Feb 14:34:03 14:39:16 58° 79° (E) 14:44:24 437.125/150
Cosmos 2491 15 Feb 14:40:10 14:48:54 57° 101° (ESE) 14:57:28 435.465 / 435.565
DANDE 15 Feb 14:49:39 14:52:25 59° 82° (E) 14:55:03 436.750
AIST 2 15 Feb 15:03:28 15:06:54 24° 130° (SE) 15:10:20 435.215
BEESAT 3 15 Feb 15:06:41 15:09:30 19° 291° (WNW) 15:12:18 437.485
ITUPSAT 1 15 Feb 15:07:40 15:12:20 49° 280° (W) 15:17:03 437.325
CUSAT 1 15 Feb 15:12:02 15:13:45 16° 252° (WSW) 15:15:33 437.405
BEESAT 15 Feb 15:12:32 15:17:05 43° 279° (W) 15:21:43 436.000
PHONESAT 2.4 15 Feb 15:15:35 15:18:53 65° 170° (S) 15:22:11 2401.200-2431.200
KKS-1 15 Feb 15:22:29 15:26:26 32° 110° (ESE) 15:30:27 437.445
YUBILEINY 15 Feb 15:25:13 15:33:32 50° 91° (E) 15:41:52 435.215
JAS-2 15 Feb 15:27:30 15:35:05 71° 253° (WSW) 15:42:57 435.910
BEESAT 2 15 Feb 15:42:00 15:43:45 13° 288° (WNW) 15:45:30 435.950
Gurwin Techsat 1B 15 Feb 15:49:43 15:55:07 74° 254° (WSW) 16:00:26 435.225
ITAMSAT 1 15 Feb 15:55:12 16:00:25 64° 78° (ENE) 16:05:34 435.822/435.867
MOZHAYETS 4 15 Feb 15:56:35 16:00:34 29° 111° (ESE) 16:04:35
AO-7 15 Feb 16:09:22 16:16:24 29° 84° (E) 16:23:21 29.400- 29.500
SWISSCUBE 15 Feb 16:09:41 16:10:43 11° 270° (W) 16:11:45 437.505
Oscar 19 15 Feb 16:14:45 16:18:04 17° 243° (WSW) 16:21:21 437.125/150
SO-50 15 Feb 16:23:17 16:27:30 48° 64° (ENE) 16:31:44 436.795
STARS 15 Feb 16:26:11 16:30:37 87° 103° (ESE) 16:35:08 437.465
M-CUBED/EXP-1 PRIME 15 Feb 16:37:55 16:39:37 12° 86° (E) 16:41:17 437.505
Cosmos 2491 15 Feb 16:37:57 16:45:07 29° 263° (W) 16:52:13 435.465 / 435.565
AIST 2 15 Feb 16:41:42 16:45:25 31° 293° (WNW) 16:49:05 435.215
AUBIESAT-1 15 Feb 16:43:14 16:44:16 11° 86° (E) 16:45:17 437.475
HORYU 2 15 Feb 16:43:48 16:46:16 14° 88° (E) 16:48:42 437.375
PHONESAT 2.4 15 Feb 16:52:58 16:56:03 36° 333° (NNW) 16:59:07 2401.200-2431.200
CUBESAT XI-V 15 Feb 16:55:15 16:56:59 12° 117° (ESE) 16:58:43 437.345
KKS-1 15 Feb 16:59:33 17:03:01 22° 275° (W) 17:06:32 437.445
JAS-2 15 Feb 17:15:17 17:18:53 14° 237° (WSW) 17:22:33 435.910
Cosmos 2504 15 Feb 17:17:30 17:24:35 52° 89° (E) 17:31:33 435.465 / 435.565
YUBILEINY 15 Feb 17:22:53 17:30:32 33° 252° (WSW) 17:38:17 435.215
MOZHAYETS 4 15 Feb 17:33:48 17:37:40 26° 275° (W) 17:41:35
ITAMSAT 1 15 Feb 17:36:20 17:39:18 15° 242° (WSW) 17:42:15 435.822/435.867
AO-7 15 Feb 18:01:18 18:09:31 60° 247° (WSW) 18:17:41 29.400- 29.500
SO-50 15 Feb 18:05:10 18:08:13 18° 227° (SW) 18:11:17 436.795
M-CUBED/EXP-1 PRIME 15 Feb 18:10:07 18:14:40 58° 249° (WSW) 18:18:49 437.505
AUBIESAT-1 15 Feb 18:14:48 18:19:17 62° 250° (WSW) 18:23:24 437.475
STRAND 1 15 Feb 18:15:14 18:17:12 12° 119° (ESE) 18:19:09 437.568
CUTE-I 15 Feb 18:17:13 18:18:46 11° 90° (E) 18:20:19 437.470
HORYU 2 15 Feb 18:18:43 18:23:05 48° 252° (WSW) 18:27:23 437.375
CUBESAT XI-V 15 Feb 18:29:09 18:33:46 67° 281° (W) 18:38:26 437.345
Cubesat XI-IV 15 Feb 18:31:14 18:34:34 16° 88° (E) 18:37:51 437.490
BRITE-PL 15 Feb 18:37:59 18:39:49 12° 90° (E) 18:41:41 437.365/2234.400
O/OREOS (USA 219) 15 Feb 18:52:28 18:54:55 14° 81° (E) 18:57:23 437.305
Cosmos 2504 15 Feb 19:12:25 19:18:16 25° 251° (WSW) 19:24:03 435.465 / 435.565
GOMX 1 15 Feb 19:13:42 19:16:29 14° 90° (E) 19:19:17 467.674
STRAND 1 15 Feb 19:50:28 19:55:38 81° 283° (WNW) 20:00:51 437.568
CUTE-I 15 Feb 19:53:59 19:59:23 79° 255° (WSW) 20:04:43 437.470
AO-7 15 Feb 19:57:29 20:00:32 12° 227° (SW) 20:03:34 29.400- 29.500
LilacSat-2 15 Feb 20:01:26 20:05:19 53° 255° (WSW) 20:09:07 437.200
HO-68 15 Feb 20:01:55 20:04:20 12° 91° (E) 20:06:45 435.675
DOVE 4 15 Feb 20:02:48 20:06:59 23° 87° (E) 20:11:06 437.250
Cubesat XI-IV 15 Feb 20:09:41 20:14:58 57° 252° (WSW) 20:20:11 437.490
BRITE-PL 15 Feb 20:13:19 20:18:44 83° 258° (WSW) 20:24:22 437.365/2234.400
O/OREOS (USA 219) 15 Feb 20:29:22 20:33:50 49° 246° (WSW) 20:38:21 437.305
CUTE 1.7 + AOD 2 15 Feb 20:29:45 20:31:27 12° 89° (E) 20:33:09 437.475
PRISM 15 Feb 20:43:21 20:47:26 67° 283° (WNW) 20:51:35 437.425
GOMX 1 15 Feb 20:49:32 20:54:57 71° 256° (WSW) 21:00:27 467.674
JUGNU 15 Feb 20:50:20 20:52:52 13° 0° (N) 20:55:25 437.505
GONETS M04 15 Feb 20:51:45 20:59:51 42° 93° (E) 21:07:58
CANX-2 15 Feb 21:13:50 21:18:00 47° 81° (E) 21:22:04 2200.000
CUBEBUG 2 15 Feb 21:20:38 21:23:25 15° 89° (E) 21:26:08 437.445
AO-85 15 Feb 21:26:55 21:30:09 25° 66° (ENE) 21:33:20 145.980
COMPASS 1 15 Feb 21:34:38 21:38:35 38° 82° (E) 21:42:27 437.405
DOVE 4 15 Feb 21:39:43 21:44:46 43° 252° (WSW) 21:49:47 437.250
HO-68 15 Feb 21:45:44 21:53:00 81° 75° (ENE) 22:00:11 435.675
UNISAT 6 15 Feb 21:45:56 21:48:31 15° 116° (ESE) 21:51:07 437.425
ZACube-1 15 Feb 21:49:48 21:52:27 15° 89° (E) 21:55:02 437.345
CINEMA 3 15 Feb 21:51:18 21:56:25 85° 257° (WSW) 22:01:21 145.822/145.860
PCSat 15 Feb 21:55:10 21:59:49 30° 72° (ENE) 22:04:29 145.827
BRITE-PL 15 Feb 21:55:14 21:56:25 11° 242° (WSW) 21:57:38 437.365/2234.400
FUNcube-1 15 Feb 21:55:31 21:58:26 17° 88° (E) 22:01:17 145.935
AAUSAT CUBESAT 2 15 Feb 21:57:27 22:01:35 58° 80° (E) 22:05:40 437.432
SEEDS 15 Feb 21:59:15 22:03:30 76° 255° (WSW) 22:07:41 437.485
Cosmos 2499 15 Feb 22:01:21 22:08:03 45° 90° (E) 22:14:45 435.465 / 435.565
CUTE 1.7 + AOD 2 15 Feb 22:03:26 22:07:35 50° 254° (WSW) 22:11:41 437.475
Oscar 11 15 Feb 22:18:27 22:22:34 40° 82° (E) 22:26:39 145.826/435.025
DELFI C3 15 Feb 22:25:26 22:28:44 24° 85° (E) 22:31:58 145.870
ANTELSAT 15 Feb 22:28:40 22:33:04 40° 109° (ESE) 22:37:31 437.575/2403.000
TIGRISAT 15 Feb 22:33:25 22:37:50 42° 108° (ESE) 22:42:21 435.000
SRMSAT 15 Feb 22:37:25 22:40:08 13° 2° (N) 22:42:53 437.500
JUGNU 15 Feb 22:40:40 22:40:59 10° 350° (N) 22:41:20 437.505
UWE-3 15 Feb 22:43:50 22:48:31 88° 261° (W) 22:52:59 435.000/436.395/437.385
GONETS M04 15 Feb 22:48:24 22:56:35 41° 254° (WSW) 23:04:52
CANX-2 15 Feb 22:51:11 22:53:25 14° 246° (WSW) 22:55:39 2200.000
DUCHIFAT 1 15 Feb 22:53:01 22:55:25 15° 115° (ESE) 22:57:51 145.980
HUMSAT D 15 Feb 22:53:02 22:56:17 21° 86° (E) 22:59:28 437.325/437.525
POPSAT HIP 1 15 Feb 22:53:07 22:55:46 16° 114° (ESE) 22:58:26 437.405
NANOSAT C BR1 15 Feb 22:54:03 22:56:41 16° 114° (ESE) 22:59:20 145.865
CUBEBUG 2 15 Feb 22:55:45 23:00:19 47° 253° (WSW) 23:04:42 437.445
QB50P1 15 Feb 23:04:27 23:07:44 22° 112° (ESE) 23:11:03 145.935-145.965
AO-85 15 Feb 23:07:21 23:10:30 23° 231° (SW) 23:13:37 145.980
COMPASS 1 15 Feb 23:11:11 23:13:49 16° 247° (WSW) 23:16:26 437.405
RS-15 15 Feb 23:14:51 23:26:31 57° 68° (ENE) 23:37:42 29.354- 29.394
UNISAT 6 15 Feb 23:20:04 23:24:41 57° 280° (W) 23:29:25 437.425
ZACube-1 15 Feb 23:24:39 23:28:59 44° 252° (WSW) 23:33:09 437.345
AIST 1 15 Feb 23:26:22 23:30:36 61° 261° (W) 23:34:54
BUGSAT 1 15 Feb 23:28:31 23:31:24 19° 113° (ESE) 23:34:20 437.445
FUNcube-1 15 Feb 23:30:37 23:34:51 40° 252° (WSW) 23:38:57 145.935
HO-68 15 Feb 23:35:07 23:39:51 19° 237° (WSW) 23:44:34 435.675
AAUSAT CUBESAT 2 15 Feb 23:35:21 23:36:33 11° 244° (WSW) 23:37:45 437.432
PCSat 15 Feb 23:38:07 23:43:04 36° 235° (SW) 23:48:04 145.827
UKube-1 15 Feb 23:53:55 23:56:40 16° 87° (E) 23:59:22 .
Cosmos 2499 15 Feb 23:55:23 00:01:20 28° 252° (WSW) 00:07:20 435.465 / 435.565
Oscar 11 15 Feb 23:55:33 23:58:22 17° 246° (WSW) 00:01:09 145.826/435.025
VELOX 1 15 Feb 23:56:00 23:59:18 20° 86° (E) 00:02:34 145.980
POLYITAN 1 15 Feb 23:58:18 00:02:35 89° 297° (WNW) 00:07:00 437.675
QB50P2 15 Feb 23:58:39 00:02:57 86° 283° (WNW) 00:07:20 145.880/145.840
DELFI C3 16 Feb 00:00:20 00:03:32 23° 250° (WSW) 00:06:41 145.870
CUSAT 1 16 Feb 00:02:18 00:06:19 19° 106° (ESE) 00:10:54 437.405
ANTELSAT 16 Feb 00:06:31 00:09:53 19° 273° (W) 00:13:19 437.575/2403.000
TIGRISAT 16 Feb 00:11:28 00:14:41 18° 273° (W) 00:17:56 435.000
AISAT 16 Feb 00:13:09 00:17:14 32° 83° (E) 00:21:16 437.250
CUBEBUG 1 16 Feb 00:15:31 00:19:23 27° 84° (E) 00:23:11 437.445
DX 1 16 Feb 00:15:36 00:19:40 34° 82° (E) 00:23:41 434.975-435.025
DUCHIFAT 1 16 Feb 00:26:37 00:30:42 45° 279° (W) 00:34:52 145.980
SRMSAT 16 Feb 00:26:43 00:28:27 11° 351° (N) 00:30:09 437.500
POPSAT HIP 1 16 Feb 00:27:07 00:31:11 42° 279° (W) 00:35:19 437.405
NANOSAT C BR1 16 Feb 00:28:00 00:32:02 41° 279° (W) 00:36:10 145.865
HUMSAT D 16 Feb 00:28:14 00:31:55 28° 250° (WSW) 00:35:31 437.325/437.525
50 SAT 16 Feb 00:34:57 00:38:45 72° 78° (ENE) 00:42:28 437.505
QB50P1 16 Feb 00:39:33 00:43:19 30° 277° (W) 00:47:09 145.935-145.965
SO-50 16 Feb 00:56:07 01:00:03 28° 129° (SE) 01:04:03 436.795
ESTCUBE 1 16 Feb 00:58:46 01:03:19 71° 256° (WSW) 01:07:49 437.505/2401.250
BUGSAT 1 16 Feb 01:02:49 01:06:32 32° 277° (W) 01:10:20 437.445
TISAT 1 16 Feb 01:14:37 01:17:09 15° 87° (E) 01:19:39 437.305
DANDE 16 Feb 01:25:57 01:30:42 47° 100° (E) 01:36:55 436.750
SPROUT 16 Feb 01:27:18 01:31:42 63° 79° (ENE) 01:36:00 437.525
RS-15 16 Feb 01:27:59 01:39:15 45° 227° (SW) 01:50:07 29.354- 29.394
UKube-1 16 Feb 01:28:44 01:32:52 41° 252° (WSW) 01:36:58 .
Gurwin Techsat 1B 16 Feb 01:31:16 01:34:49 18° 117° (ESE) 01:38:24 435.225
VELOX 1 16 Feb 01:31:43 01:35:51 35° 251° (WSW) 01:39:56 145.980
YUBILEINY 16 Feb 01:38:22 01:44:52 22° 113° (ESE) 01:51:18 435.215
JAS-2 16 Feb 01:38:31 01:43:43 42° 112° (ESE) 01:49:32 435.910
CUSAT 1 16 Feb 01:42:58 01:48:36 65° 277° (W) 01:55:43 437.405
Oscar 19 16 Feb 01:48:58 01:54:05 70° 106° (ESE) 01:59:18 437.125/150
AISAT 16 Feb 01:50:00 01:53:31 22° 248° (WSW) 01:57:00 437.250
Cosmos 2491 16 Feb 01:50:10 01:52:05 11° 106° (ESE) 01:54:01 435.465 / 435.565
CUBEBUG 1 16 Feb 01:51:52 01:55:32 25° 249° (WSW) 01:59:11 437.445
DX 1 16 Feb 01:52:20 01:55:36 20° 247° (WSW) 01:58:52 434.975-435.025
ISS 16 Feb 02:20:59 02:24:13 50° 44° (NE) 02:27:28 145.825
SWISSCUBE 16 Feb 02:30:35 02:34:12 21° 86° (E) 02:37:47 437.505
SO-50 16 Feb 02:36:29 02:40:29 30° 294° (WNW) 02:44:34 436.795
TISAT 1 16 Feb 02:48:54 02:53:00 42° 252° (WSW) 02:57:02 437.305
SPROUT 16 Feb 03:05:38 03:07:05 11° 244° (WSW) 03:08:32 437.525
AO-7 16 Feb 03:06:31 03:13:47 35° 120° (ESE) 03:21:06 29.400- 29.500
Gurwin Techsat 1B 16 Feb 03:09:03 03:14:17 56° 280° (W) 03:19:35 435.225
DANDE 16 Feb 03:09:46 03:13:31 20° 273° (W) 03:17:59 436.750
ITUPSAT 1 16 Feb 03:09:53 03:14:34 48° 80° (E) 03:19:11 437.325
ITAMSAT 1 16 Feb 03:11:13 03:16:27 82° 105° (ESE) 03:21:45 435.822/435.867
Cosmos 2504 16 Feb 03:12:29 03:17:02 16° 113° (ESE) 03:21:43 435.465 / 435.565
BEESAT 16 Feb 03:14:12 03:18:57 55° 79° (E) 03:23:38 436.000
M-CUBED/EXP-1 PRIME 16 Feb 03:22:23 03:24:51 14° 122° (ESE) 03:27:21 437.505
JAS-2 16 Feb 03:24:33 03:29:01 25° 272° (W) 03:33:57 435.910
AUBIESAT-1 16 Feb 03:27:00 03:29:10 13° 123° (ESE) 03:31:21 437.475
Oscar 19 16 Feb 03:31:47 03:33:53 12° 270° (W) 03:36:01 437.125/150
YUBILEINY 16 Feb 03:33:44 03:42:30 74° 273° (W) 03:51:12 435.215
Cosmos 2491 16 Feb 03:38:23 03:47:08 70° 87° (E) 03:56:00 435.465 / 435.565
HORYU 2 16 Feb 03:41:15 03:42:58 12° 117° (ESE) 03:44:42 437.375
RS-15 16 Feb 03:48:38 03:55:49 18° 196° (SSW) 04:02:51 29.354- 29.394
BEESAT 2 16 Feb 03:55:06 03:57:00 13° 71° (ENE) 03:58:54 435.950
ISS 16 Feb 03:58:15 04:00:51 21° 207° (SSW) 04:03:28 145.825
SWISSCUBE 16 Feb 04:07:39 04:12:05 37° 250° (WSW) 04:16:28 437.505
STARS 16 Feb 04:18:31 04:21:40 18° 86° (E) 04:24:47 437.465
ITUPSAT 1 16 Feb 04:48:53 04:52:00 17° 245° (WSW) 04:55:05 437.325
KKS-1 16 Feb 04:51:01 04:55:37 82° 78° (ENE) 05:00:08 437.445
BEESAT 16 Feb 04:53:28 04:56:15 15° 244° (WSW) 04:59:00 436.000
M-CUBED/EXP-1 PRIME 16 Feb 04:54:22 04:58:48 64° 285° (WNW) 05:03:32 437.505
BEESAT 3 16 Feb 04:54:55 04:58:50 72° 239° (WSW) 05:02:48 437.485
ITAMSAT 1 16 Feb 04:55:32 04:56:30 10° 270° (W) 04:57:27 435.822/435.867
AO-7 16 Feb 04:58:13 05:06:12 51° 282° (WNW) 05:14:19 29.400- 29.500
AUBIESAT-1 16 Feb 04:58:35 05:03:01 69° 286° (WNW) 05:07:44 437.475
O/OREOS (USA 219) 16 Feb 05:02:35 05:06:06 21° 121° (ESE) 05:09:34 437.305
Cosmos 2504 16 Feb 05:03:32 05:11:16 87° 277° (W) 05:19:31 435.465 / 435.565
HORYU 2 16 Feb 05:14:26 05:18:56 66° 282° (WNW) 05:23:30 437.375
